Retour au catalogue

NOAA 16 DEB

ActifPO
NORAD 41130·DEBRIS·🇺🇸 United States

Lancé Sep 21, 2000 depuis Vandenberg Space Force Base

Loading…

Prochains Passages (prochaines 24 heures)

TLE

FraisSource: Space-Track

Époque: Sep 14, 2026, 07:05 UTC

1 41130U 00055BM  26257.29569413  .00003059  00000-0  95402-3 0  9990
2 41130  98.9513  59.5766 0017362 243.2028 116.7384 14.41543316559656

Suivez NOAA 16 DEB en temps réel avec AllMySat

Download on the App Store